,,Stat6,,Stat2,,Stat8,,Stat9,,Stat10,,Wind1,,Wind1,
time,status,PA1M_AVG,status,PR1M_SUM,status,RH1M_AVG,status,SR1M_AVG,status,TA1M_AVG,status,W1dAve1m,status,W1sAve1m,
2007-12-09, 00:00:00,VALID,915.84,VALID,0,VALID,100,VALID,-0.0509425,VALID,20.2215,VALID,129,VALID,1.13802,
2007-12-09, 00:01:00,VALID,915.835,VALID,0,VALID,100,VALID,-0.0339617,VALID,20.2212,VALID,132,VALID,0.925305,
2007-12-09, 00:02:00,VALID,915.842,VALID,0,VALID,100,VALID,-0.0169808,VALID,20.204,VALID,138,VALID,0.84189,
2007-12-09, 00:03:00,VALID,915.838,VALID,0,VALID,100,VALID,0,VALID,20.2239,VALID,146,VALID,0.432639,
2007-12-09, 00:04:00,VALID,915.845,VALID,0,VALID,100,VALID,0,VALID,20.2204,VALID,136,VALID,0.741186,
2007-12-09, 00:05:00,VALID,915.833,VALID,0,VALID,100,VALID,-0.0169808,VALID,20.2245,VALID,142,VALID,0.415698,
2007-12-09, 00:06:00,VALID,915.841,VALID,0,VALID,100,VALID,-0.0169808,VALID,20.2239,VALID,149,VALID,0.736178,
2007-12-09, 00:07:00,VALID,915.849,VALID,0,VALID,100,VALID,0,VALID,20.2242,VALID,156,VALID,0.547061,
2007-12-09, 00:08:00,VALID,915.869,VALID,0,VALID,100,VALID,0,VALID,20.2202,VALID,152,VALID,0.0635901,
2007-12-09, 00:09:00,VALID,915.881,VALID,0,VALID,100,VALID,-0.0169808,VALID,20.2337,VALID,152,VALID,0,
2007-12-09, 00:10:00,VALID,915.9,VALID,0,VALID,100,VALID,0,VALID,20.2461,VALID,152,VALID,0,
2007-12-09, 00:11:00,VALID,915.903,VALID,0.2,VALID,100,VALID,0,VALID,20.2596,VALID,152,VALID,0,
2007-12-09, 00:12:00,VALID,915.906,VALID,0,VALID,100,VALID,-0.0169808,VALID,20.2494,VALID,152,VALID,0,
2007-12-09, 00:13:00,VALID,915.913,VALID,0,VALID,100,VALID,0.0169808,VALID,20.2626,VALID,152,VALID,0,
2007-12-09, 00:14:00,VALID,915.9,VALID,0,VALID,100,VALID,-0.0169808,VALID,20.2566,VALID,152,VALID,0,
2007-12-09, 00:15:00,VALID,915.906,VALID,0.2,VALID,100,VALID,-0.0509425,VALID,20.2566,VALID,152,VALID,0,
2007-12-09, 00:16:00,VALID,915.913,VALID,0,VALID,100,VALID,-0.0339617,VALID,20.2656,VALID,151,VALID,0,
2007-12-09, 00:17:00,VALID,915.931,VALID,0,VALID,100,VALID,0.0169808,VALID,20.2659,VALID,107,VALID,0,
2007-12-09, 00:18:00,VALID,915.933,VALID,0,VALID,100,VALID,0,VALID,20.2853,VALID,60,VALID,0,
2007-12-09, 00:19:00,VALID,915.954,VALID,0,VALID,100,VALID,0,VALID,20.2726,VALID,40,VALID,0.180259,
2007-12-09, 00:20:00,VALID,915.968,VALID,0,VALID,100,VALID,0,VALID,20.2494,VALID,25,VALID,0.749805,
2007-12-09, 00:21:00,VALID,915.995,VALID,0,VALID,100,VALID,0,VALID,20.2399,VALID,17,VALID,0.935826,
2007-12-09, 00:22:00,VALID,916.015,VALID,0.2,VALID,100,VALID,-0.0339617,VALID,20.2397,VALID,11,VALID,1.00484,
2007-12-09, 00:23:00,VALID,916.028,VALID,0.2,VALID,100,VALID,-0.0169808,VALID,20.2429,VALID,13,VALID,0.903201,
2007-12-09, 00:24:00,VALID,916.028,VALID,0.2,VALID,100,VALID,-0.0169808,VALID,20.2461,VALID,15,VALID,0.487571,
2007-12-09, 00:25:00,VALID,916.018,VALID,0,VALID,100,VALID,-0.0169808,VALID,20.2367,VALID,14,VALID,0.852095,
2007-12-09, 00:26:00,VALID,916.025,VALID,0.2,VALID,100,VALID,0.0169808,VALID,20.2596,VALID,14,VALID,1.04725,
2007-12-09, 00:27:00,VALID,916.031,VALID,0,VALID,100,VALID,-0.0169808,VALID,20.2591,VALID,19,VALID,1.6424,
2007-12-09, 00:28:00,VALID,916.029,VALID,0,VALID,100,VALID,-0.0169808,VALID,20.2432,VALID,17,VALID,1.95399,
2007-12-09, 00:29:00,VALID,916.034,VALID,0.2,VALID,100,VALID,-0.0169808,VALID,20.2399,VALID,19,VALID,1.69531,
2007-12-09, 00:30:00,VALID,916.021,VALID,0.2,VALID,100,VALID,-0.0169808,VALID,20.2202,VALID,24,VALID,1.61119,
2007-12-09, 00:31:00,VALID,916.013,VALID,0.2,VALID,100,VALID,0,VALID,20.2107,VALID,50,VALID,1.06901,
2007-12-09, 00:32:00,VALID,915.995,VALID,0.4,VALID,100,VALID,-0.0339617,VALID,20.2045,VALID,34,VALID,0.443945,
2007-12-09, 00:33:00,VALID,915.963,VALID,0.6,VALID,100,VALID,-0.0169808,VALID,20.2107,VALID,10,VALID,0.65918,
2007-12-09, 00:34:00,VALID,915.922,VALID,0.8,VALID,100,VALID,-0.0169808,VALID,20.211,VALID,8,VALID,0.030692,
2007-12-09, 00:35:00,VALID,915.86,VALID,0.8,VALID,100,VALID,-0.0509425,VALID,20.1748,VALID,8,VALID,0,
2007-12-09, 00:36:00,VALID,915.842,VALID,0.4,VALID,100,VALID,-0.0339617,VALID,20.159,VALID,268,VALID,0,
2007-12-09, 00:37:00,VALID,915.825,VALID,0.4,VALID,100,VALID,0.0169808,VALID,20.159,VALID,247,VALID,0,
2007-12-09, 00:38:00,VALID,915.805,VALID,0.4,VALID,100,VALID,-0.0339617,VALID,20.1393,VALID,244,VALID,0,
2007-12-09, 00:39:00,VALID,915.791,VALID,0.4,VALID,100,VALID,-0.0339617,VALID,20.1393,VALID,244,VALID,0,
2007-12-09, 00:40:00,VALID,915.779,VALID,0.2,VALID,100,VALID,-0.0169808,VALID,20.1453,VALID,244,VALID,0,
2007-12-09, 00:41:00,VALID,915.772,VALID,0.2,VALID,100,VALID,-0.0169808,VALID,20.1491,VALID,243,VALID,0,
2007-12-09, 00:42:00,VALID,915.75,VALID,0.2,VALID,100,VALID,-0.0509425,VALID,20.1363,VALID,246,VALID,0.267299,
2007-12-09, 00:43:00,VALID,915.743,VALID,0.2,VALID,100,VALID,-0.0169808,VALID,20.1461,VALID,243,VALID,0.256944,
2007-12-09, 00:44:00,VALID,915.727,VALID,0.2,VALID,100,VALID,0,VALID,20.1493,VALID,248,VALID,0,
2007-12-09, 00:45:00,VALID,915.73,VALID,0,VALID,100,VALID,0,VALID,20.1493,VALID,248,VALID,0,
2007-12-09, 00:46:00,VALID,915.728,VALID,0,VALID,100,VALID,-0.0169808,VALID,20.1491,VALID,248,VALID,0,
2007-12-09, 00:47:00,VALID,915.721,VALID,0,VALID,100,VALID,-0.0169808,VALID,20.1363,VALID,248,VALID,0,
2007-12-09, 00:48:00,VALID,915.709,VALID,0.2,VALID,100,VALID,0,VALID,20.1426,VALID,248,VALID,0,
2007-12-09, 00:49:00,VALID,915.699,VALID,0,VALID,100,VALID,0.0169808,VALID,20.1488,VALID,248,VALID,0,
2007-12-09, 00:50:00,VALID,915.688,VALID,0,VALID,100,VALID,0,VALID,20.1391,VALID,229,VALID,0.177269,
2007-12-09, 00:51:00,VALID,915.69,VALID,0,VALID,100,VALID,-0.0169808,VALID,20.1293,VALID,254,VALID,0.0285247,
2007-12-09, 00:52:00,VALID,915.68,VALID,0,VALID,100,VALID,-0.0339617,VALID,20.1331,VALID,260,VALID,0.000887784,
2007-12-09, 00:53:00,VALID,915.693,VALID,0.2,VALID,100,VALID,0,VALID,20.1326,VALID,260,VALID,0.000545058,
2007-12-09, 00:54:00,VALID,915.688,VALID,0,VALID,100,VALID,0,VALID,20.1456,VALID,260,VALID,0,
2007-12-09, 00:55:00,VALID,915.674,VALID,0,VALID,100,VALID,0,VALID,20.1523,VALID,260,VALID,0,
2007-12-09, 00:56:00,VALID,915.663,VALID,0,VALID,100,VALID,0.0169808,VALID,20.1553,VALID,260,VALID,0,
2007-12-09, 00:57:00,VALID,915.658,VALID,0.2,VALID,100,VALID,0,VALID,20.1618,VALID,250,VALID,0.0494792,
2007-12-09, 00:58:00,VALID,915.638,VALID,0,VALID,100,VALID,-0.0169808,VALID,20.1553,VALID,201,VALID,0.572852,
2007-12-09, 00:59:00,VALID,915.609,VALID,0,VALID,100,VALID,0,VALID,20.1488,VALID,207,VALID,0.345385,
2007-12-09, 01:00:00,VALID,915.596,VALID,0,VALID,100,VALID,0,VALID,20.1456,VALID,222,VALID,0.37221,
2007-12-09, 01:01:00,VALID,915.569,VALID,0,VALID,100,VALID,0,VALID,20.1326,VALID,206,VALID,0.00334821,
2007-12-09, 01:02:00,VALID,915.57,VALID,0,VALID,100,VALID,0.0169808,VALID,20.1328,VALID,195,VALID,0.30564,
2007-12-09, 01:03:00,VALID,915.568,VALID,0,VALID,100,VALID,0,VALID,20.1261,VALID,209,VALID,0.522294,
2007-12-09, 01:04:00,VALID,915.555,VALID,0.2,VALID,100,VALID,-0.0169808,VALID,20.1261,VALID,218,VALID,0.26527,
2007-12-09, 01:05:00,VALID,915.546,VALID,0,VALID,100,VALID,-0.0169808,VALID,20.1191,VALID,222,VALID,0.264353,
2007-12-09, 01:06:00,VALID,915.522,VALID,0,VALID,100,VALID,0.0169808,VALID,20.1258,VALID,222,VALID,0,
2007-12-09, 01:07:00,VALID,915.508,VALID,0,VALID,100,VALID,0.0169808,VALID,20.1288,VALID,221,VALID,0,
2007-12-09, 01:08:00,VALID,915.489,VALID,0,VALID,100,VALID,-0.0169808,VALID,20.1191,VALID,227,VALID,0,
2007-12-09, 01:09:00,VALID,915.479,VALID,0,VALID,100,VALID,0.0339617,VALID,20.1261,VALID,241,VALID,0.162791,
2007-12-09, 01:10:00,VALID,915.456,VALID,0,VALID,100,VALID,0.0169808,VALID,20.1263,VALID,257,VALID,0.530869,
2007-12-09, 01:11:00,VALID,915.45,VALID,0,VALID,100,VALID,0.0339617,VALID,20.1129,VALID,253,VALID,0.637463,
2007-12-09, 01:12:00,VALID,915.431,VALID,0,VALID,100,VALID,0,VALID,20.1263,VALID,262,VALID,0.082919,
2007-12-09, 01:13:00,VALID,915.42,VALID,0,VALID,100,VALID,0,VALID,20.1196,VALID,262,VALID,0,
2007-12-09, 01:14:00,VALID,915.418,VALID,0,VALID,100,VALID,0,VALID,20.1328,VALID,261,VALID,0.566211,
2007-12-09, 01:15:00,VALID,915.394,VALID,0,VALID,100,VALID,0.0339617,VALID,20.1288,VALID,257,VALID,0.195503,
2007-12-09, 01:16:00,VALID,915.384,VALID,0,VALID,100,VALID,0,VALID,20.1326,VALID,216,VALID,0.331659,
2007-12-09, 01:17:00,VALID,915.377,VALID,0.2,VALID,100,VALID,-0.0339617,VALID,20.1228,VALID,211,VALID,0.465892,
2007-12-09, 01:18:00,VALID,915.383,VALID,0,VALID,100,VALID,-0.0509425,VALID,20.1231,VALID,200,VALID,0.311285,
2007-12-09, 01:19:00,VALID,915.362,VALID,0,VALID,100,VALID,-0.0169808,VALID,20.1261,VALID,200,VALID,0,
2007-12-09, 01:20:00,VALID,915.365,VALID,0,VALID,100,VALID,-0.0339617,VALID,20.1291,VALID,200,VALID,0,
2007-12-09, 01:21:00,VALID,915.358,VALID,0,VALID,100,VALID,0,VALID,20.1261,VALID,200,VALID,0,
2007-12-09, 01:22:00,VALID,915.323,VALID,0,VALID,100,VALID,-0.0169808,VALID,20.1293,VALID,200,VALID,0,
2007-12-09, 01:23:00,VALID,915.318,VALID,0,VALID,100,VALID,-0.0169808,VALID,20.1293,VALID,200,VALID,0,
2007-12-09, 01:24:00,VALID,915.292,VALID,0,VALID,100,VALID,-0.0169808,VALID,20.1391,VALID,200,VALID,0,
2007-12-09, 01:25:00,VALID,915.282,VALID,0,VALID,100,VALID,0.0169808,VALID,20.1358,VALID,200,VALID,0,
2007-12-09, 01:26:00,VALID,915.273,VALID,0,VALID,100,VALID,-0.0339617,VALID,20.1423,VALID,200,VALID,0,
2007-12-09, 01:27:00,VALID,915.253,VALID,0,VALID,100,VALID,-0.0339617,VALID,20.1523,VALID,200,VALID,0,
2007-12-09, 01:28:00,VALID,915.235,VALID,0,VALID,100,VALID,-0.0509425,VALID,20.1526,VALID,200,VALID,0,
2007-12-09, 01:29:00,VALID,915.217,VALID,0,VALID,100,VALID,0,VALID,20.1618,VALID,200,VALID,0,
2007-12-09, 01:30:00,VALID,915.201,VALID,0,VALID,100,VALID,-0.0339617,VALID,20.1685,VALID,200,VALID,0,
2007-12-09, 01:31:00,VALID,915.187,VALID,0,VALID,100,VALID,-0.0339617,VALID,20.1683,VALID,200,VALID,0,
2007-12-09, 01:32:00,VALID,915.171,VALID,0,VALID,100,VALID,-0.0169808,VALID,20.1783,VALID,200,VALID,0,
2007-12-09, 01:33:00,VALID,915.159,VALID,0,VALID,100,VALID,-0.0169808,VALID,20.1585,VALID,200,VALID,0,
2007-12-09, 01:34:00,VALID,915.14,VALID,0,VALID,100,VALID,-0.0339617,VALID,20.1588,VALID,200,VALID,0,
2007-12-09, 01:35:00,VALID,915.13,VALID,0,VALID,100,VALID,0,VALID,20.152,VALID,200,VALID,0,
2007-12-09, 01:36:00,VALID,915.099,VALID,0,VALID,100,VALID,-0.0169808,VALID,20.1618,VALID,200,VALID,0,
2007-12-09, 01:37:00,VALID,915.077,VALID,0,VALID,100,VALID,-0.0339617,VALID,20.1623,VALID,200,VALID,0,
2007-12-09, 01:38:00,VALID,915.062,VALID,0,VALID,100,VALID,-0.0339617,VALID,20.1653,VALID,200,VALID,0,
2007-12-09, 01:39:00,VALID,915.048,VALID,0,VALID,100,VALID,0,VALID,20.1683,VALID,200,VALID,0,
2007-12-09, 01:40:00,VALID,915.023,VALID,0,VALID,100,VALID,0,VALID,20.1648,VALID,200,VALID,0,
2007-12-09, 01:41:00,VALID,914.994,VALID,0,VALID,100,VALID,0,VALID,20.1748,VALID,200,VALID,0,
2007-12-09, 01:42:00,VALID,914.971,VALID,0,VALID,100,VALID,-0.0169808,VALID,20.1783,VALID,200,VALID,0,
2007-12-09, 01:43:00,VALID,914.954,VALID,0,VALID,100,VALID,-0.0339617,VALID,20.1845,VALID,200,VALID,0,
2007-12-09, 01:44:00,VALID,914.927,VALID,0,VALID,100,VALID,-0.0339617,VALID,20.1815,VALID,200,VALID,0,
2007-12-09, 01:45:00,VALID,914.916,VALID,0,VALID,100,VALID,-0.0339617,VALID,20.1812,VALID,200,VALID,0,
2007-12-09, 01:46:00,VALID,914.902,VALID,0,VALID,100,VALID,-0.0509425,VALID,20.1812,VALID,200,VALID,0,
2007-12-09, 01:47:00,VALID,914.886,VALID,0,VALID,100,VALID,0,VALID,20.1977,VALID,200,VALID,0,
2007-12-09, 01:48:00,VALID,914.884,VALID,0,VALID,100,VALID,-0.0339617,VALID,20.2007,VALID,200,VALID,0,
2007-12-09, 01:49:00,VALID,914.874,VALID,0,VALID,100,VALID,-0.0169808,VALID,20.1877,VALID,200,VALID,0,
2007-12-09, 01:50:00,VALID,914.863,VALID,0,VALID,100,VALID,-0.0169808,VALID,20.188,VALID,195,VALID,0,
2007-12-09, 01:51:00,VALID,914.842,VALID,0,VALID,100,VALID,-0.0169808,VALID,20.1615,VALID,154,VALID,0,
2007-12-09, 01:52:00,VALID,914.836,VALID,0,VALID,100,VALID,-0.0679233,VALID,20.1553,VALID,144,VALID,0.0569957,
2007-12-09, 01:53:00,VALID,914.824,VALID,0,VALID,100,VALID,0,VALID,20.1618,VALID,155,VALID,0.544097,
2007-12-09, 01:54:00,VALID,914.798,VALID,0,VALID,100,VALID,-0.0849042,VALID,20.1555,VALID,148,VALID,0.763021,
2007-12-09, 01:55:00,VALID,914.786,VALID,0,VALID,100,VALID,-0.0679233,VALID,20.1488,VALID,147,VALID,0.825,
2007-12-09, 01:56:00,VALID,914.781,VALID,0.2,VALID,100,VALID,-0.0679233,VALID,20.1488,VALID,157,VALID,0.734566,
2007-12-09, 01:57:00,VALID,914.78,VALID,0,VALID,100,VALID,0,VALID,20.1458,VALID,147,VALID,0.865234,
2007-12-09, 01:58:00,VALID,914.778,VALID,0,VALID,100,VALID,-0.0849042,VALID,20.1458,VALID,131,VALID,0.982244,
2007-12-09, 01:59:00,VALID,914.782,VALID,0,VALID,100,VALID,-0.0339617,VALID,20.1298,VALID,133,VALID,0.879439,
2007-12-09, 02:00:00,VALID,914.772,VALID,0,VALID,100,VALID,-0.0339617,VALID,20.1331,VALID,150,VALID,1.1694,
2007-12-09, 02:01:00,VALID,914.757,VALID,0,VALID,100,VALID,-0.0339617,VALID,20.1266,VALID,160,VALID,0.862674,
2007-12-09, 02:02:00,VALID,914.746,VALID,0,VALID,100,VALID,-0.0509425,VALID,20.1096,VALID,159,VALID,1.05814,
2007-12-09, 02:03:00,VALID,914.74,VALID,0,VALID,100,VALID,-0.0679233,VALID,20.1136,VALID,157,VALID,0.632813,
2007-12-09, 02:04:00,VALID,914.729,VALID,0,VALID,100,VALID,-0.0339617,VALID,20.1136,VALID,157,VALID,0.888445,
2007-12-09, 02:05:00,VALID,914.712,VALID,0,VALID,100,VALID,-0.0509425,VALID,20.1034,VALID,160,VALID,0.634993,
2007-12-09, 02:06:00,VALID,914.709,VALID,0,VALID,100,VALID,-0.0679233,VALID,20.1009,VALID,155,VALID,0.933503,
2007-12-09, 02:07:00,VALID,914.679,VALID,0,VALID,100,VALID,-0.0339617,VALID,20.0872,VALID,146,VALID,0.7625,
2007-12-09, 02:08:00,VALID,914.668,VALID,0,VALID,100,VALID,-0.0679233,VALID,20.0774,VALID,137,VALID,0.473785,
2007-12-09, 02:09:00,VALID,914.648,VALID,0,VALID,100,VALID,-0.0509425,VALID,20.0779,VALID,141,VALID,0.407774,
2007-12-09, 02:10:00,VALID,914.625,VALID,0,VALID,100,VALID,-0.0679233,VALID,20.0709,VALID,143,VALID,0.202939,
2007-12-09, 02:11:00,VALID,914.596,VALID,0,VALID,100,VALID,-0.0849042,VALID,20.0879,VALID,147,VALID,0.208031,
2007-12-09, 02:12:00,VALID,914.578,VALID,0,VALID,100,VALID,-0.0509425,VALID,20.0809,VALID,146,VALID,0,
2007-12-09, 02:13:00,VALID,914.554,VALID,0,VALID,100,VALID,-0.0339617,VALID,20.0709,VALID,146,VALID,0.0930398,
2007-12-09, 02:14:00,VALID,914.55,VALID,0,VALID,100,VALID,-0.0339617,VALID,20.0515,VALID,139,VALID,0.381177,
2007-12-09, 02:15:00,VALID,914.547,VALID,0,VALID,100,VALID,-0.0169808,VALID,20.0585,VALID,131,VALID,0.427641,
2007-12-09, 02:16:00,VALID,914.555,VALID,0,VALID,100,VALID,0,VALID,20.032,VALID,110,VALID,0.502544,
2007-12-09, 02:17:00,VALID,914.548,VALID,0,VALID,100,VALID,-0.0339617,VALID,20.0225,VALID,102,VALID,0.37779,
2007-12-09, 02:18:00,VALID,914.555,VALID,0,VALID,100,VALID,-0.0169808,VALID,20.016,VALID,93,VALID,0.559722,
2007-12-09, 02:19:00,VALID,914.555,VALID,0,VALID,100,VALID,-0.0169808,VALID,20.0028,VALID,92,VALID,0.678125,
2007-12-09, 02:20:00,VALID,914.531,VALID,0,VALID,100,VALID,-0.0679233,VALID,20.0065,VALID,92,VALID,0.446987,
2007-12-09, 02:21:00,VALID,914.522,VALID,0,VALID,100,VALID,-0.0339617,VALID,19.9936,VALID,92,VALID,0.0356105,
2007-12-09, 02:22:00,VALID,914.55,VALID,0,VALID,100,VALID,0,VALID,20.0133,VALID,92,VALID,0,
2007-12-09, 02:23:00,VALID,914.545,VALID,0,VALID,100,VALID,-0.0339617,VALID,19.9966,VALID,92,VALID,0,
2007-12-09, 02:24:00,VALID,914.552,VALID,0,VALID,100,VALID,0,VALID,20.0033,VALID,92,VALID,0.0253472,
2007-12-09, 02:25:00,VALID,914.55,VALID,0,VALID,100,VALID,-0.0339617,VALID,19.9998,VALID,93,VALID,0,
2007-12-09, 02:26:00,VALID,914.532,VALID,0,VALID,100,VALID,-0.0339617,VALID,20.006,VALID,93,VALID,0,
2007-12-09, 02:27:00,VALID,914.52,VALID,0,VALID,100,VALID,0,VALID,20.0125,VALID,93,VALID,0,
2007-12-09, 02:28:00,VALID,914.514,VALID,0,VALID,100,VALID,-0.0169808,VALID,20.0223,VALID,93,VALID,0,
2007-12-09, 02:29:00,VALID,914.495,VALID,0,VALID,100,VALID,0,VALID,20.0255,VALID,93,VALID,0,
2007-12-09, 02:30:00,VALID,914.493,VALID,0,VALID,100,VALID,0,VALID,20.0252,VALID,106,VALID,0,
2007-12-09, 02:31:00,VALID,914.484,VALID,0,VALID,100,VALID,-0.0169808,VALID,20.0293,VALID,168,VALID,0.190897,
2007-12-09, 02:32:00,VALID,914.48,VALID,0,VALID,100,VALID,-0.0339617,VALID,20.0293,VALID,160,VALID,0.384718,
2007-12-09, 02:33:00,VALID,914.48,VALID,0,VALID,100,VALID,-0.0169808,VALID,20.0392,VALID,158,VALID,0.567827,
2007-12-09, 02:34:00,VALID,914.489,VALID,0.2,VALID,100,VALID,0,VALID,20.0425,VALID,148,VALID,0.631359,
2007-12-09, 02:35:00,VALID,914.499,VALID,0,VALID,100,VALID,0,VALID,20.0417,VALID,151,VALID,0.225654,
2007-12-09, 02:36:00,VALID,914.503,VALID,0,VALID,100,VALID,-0.0339617,VALID,20.0417,VALID,154,VALID,0.729469,
2007-12-09, 02:37:00,VALID,914.5,VALID,0,VALID,100,VALID,-0.0169808,VALID,20.045,VALID,141,VALID,0.921697,
2007-12-09, 02:38:00,VALID,914.499,VALID,0,VALID,100,VALID,-0.0169808,VALID,20.032,VALID,135,VALID,0.518111,
2007-12-09, 02:39:00,VALID,914.494,VALID,0,VALID,100,VALID,-0.0169808,VALID,20.0355,VALID,133,VALID,0.0905878,
2007-12-09, 02:40:00,VALID,914.483,VALID,0,VALID,100,VALID,-0.0339617,VALID,20.0422,VALID,135,VALID,0.257449,
2007-12-09, 02:41:00,VALID,914.462,VALID,0,VALID,100,VALID,-0.0339617,VALID,20.0425,VALID,137,VALID,0.0946801,
2007-12-09, 02:42:00,VALID,914.466,VALID,0.2,VALID,100,VALID,-0.0339617,VALID,20.0322,VALID,155,VALID,0.571615,
2007-12-09, 02:43:00,VALID,914.461,VALID,0,VALID,100,VALID,-0.0169808,VALID,20.0455,VALID,132,VALID,0.332889,
2007-12-09, 02:44:00,VALID,914.45,VALID,0,VALID,100,VALID,-0.0169808,VALID,20.0522,VALID,148,VALID,0.630269,
2007-12-09, 02:45:00,VALID,914.44,VALID,0,VALID,100,VALID,-0.0339617,VALID,20.0552,VALID,154,VALID,0.278646,
2007-12-09, 02:46:00,VALID,914.434,VALID,0.2,VALID,100,VALID,0,VALID,20.0482,VALID,153,VALID,0.117369,
2007-12-09, 02:47:00,VALID,914.433,VALID,0,VALID,100,VALID,-0.0169808,VALID,20.0557,VALID,155,VALID,0.546512,
2007-12-09, 02:48:00,VALID,914.421,VALID,0,VALID,100,VALID,-0.0339617,VALID,20.0485,VALID,148,VALID,0.423971,
2007-12-09, 02:49:00,VALID,914.418,VALID,0,VALID,100,VALID,-0.0169808,VALID,20.0457,VALID,150,VALID,0.901296,
2007-12-09, 02:50:00,VALID,914.417,VALID,0.2,VALID,100,VALID,-0.0509425,VALID,20.0325,VALID,149,VALID,0.778505,
2007-12-09, 02:51:00,VALID,914.412,VALID,0,VALID,100,VALID,-0.0679233,VALID,20.0158,VALID,129,VALID,0.778646,
2007-12-09, 02:52:00,VALID,914.409,VALID,0,VALID,100,VALID,-0.0509425,VALID,20.0128,VALID,116,VALID,0.81593,
2007-12-09, 02:53:00,VALID,914.404,VALID,0.2,VALID,100,VALID,-0.0169808,VALID,20.003,VALID,111,VALID,0.945499,
2007-12-09, 02:54:00,VALID,914.394,VALID,0,VALID,100,VALID,-0.0169808,VALID,19.9871,VALID,101,VALID,0.973656,
2007-12-09, 02:55:00,VALID,914.37,VALID,0,VALID,100,VALID,-0.0339617,VALID,19.9738,VALID,82,VALID,0.906631,
2007-12-09, 02:56:00,VALID,914.359,VALID,0.2,VALID,100,VALID,0,VALID,19.9187,VALID,145,VALID,0.53125,
2007-12-09, 02:57:00,VALID,914.345,VALID,0,VALID,100,VALID,0,VALID,19.8955,VALID,115,VALID,0.562855,
2007-12-09, 02:58:00,VALID,914.328,VALID,0,VALID,100,VALID,-0.0169808,VALID,19.9055,VALID,121,VALID,0.901989,
2007-12-09, 02:59:00,VALID,914.321,VALID,0.2,VALID,100,VALID,-0.0509425,VALID,19.9062,VALID,121,VALID,0.579368,
2007-12-09, 03:00:00,VALID,914.302,VALID,0,VALID,100,VALID,-0.0169808,VALID,19.9157,VALID,89,VALID,0.491235,
2007-12-09, 03:01:00,VALID,914.285,VALID,0,VALID,100,VALID,-0.0679233,VALID,19.9219,VALID,95,VALID,0.235547,
2007-12-09, 03:02:00,VALID,914.269,VALID,0,VALID,100,VALID,-0.0339617,VALID,19.9154,VALID,155,VALID,0.0185122,
2007-12-09, 03:03:00,VALID,914.231,VALID,0.2,VALID,100,VALID,-0.0339617,VALID,19.9055,VALID,124,VALID,0.263951,
2007-12-09, 03:04:00,VALID,914.211,VALID,0,VALID,100,VALID,-0.0169808,VALID,19.9052,VALID,124,VALID,0,
2007-12-09, 03:05:00,VALID,914.193,VALID,0,VALID,100,VALID,0.0169808,VALID,19.9117,VALID,124,VALID,0,
2007-12-09, 03:06:00,VALID,914.17,VALID,0,VALID,100,VALID,-0.0169808,VALID,19.9154,VALID,124,VALID,0,
2007-12-09, 03:07:00,VALID,914.166,VALID,0.2,VALID,100,VALID,-0.0509425,VALID,19.9087,VALID,124,VALID,0,
2007-12-09, 03:08:00,VALID,914.151,VALID,0,VALID,100,VALID,-0.0169808,VALID,19.8992,VALID,125,VALID,0,
2007-12-09, 03:09:00,VALID,914.131,VALID,0,VALID,100,VALID,-0.0169808,VALID,19.8735,VALID,127,VALID,0.225038,
2007-12-09, 03:10:00,VALID,914.119,VALID,0.2,VALID,100,VALID,0,VALID,19.867,VALID,144,VALID,0.290587,
2007-12-09, 03:11:00,VALID,914.116,VALID,0,VALID,100,VALID,-0.0339617,VALID,19.857,VALID,143,VALID,0.0112645,
2007-12-09, 03:12:00,VALID,914.116,VALID,0.2,VALID,100,VALID,-0.0169808,VALID,19.8376,VALID,143,VALID,0.113086,
2007-12-09, 03:13:00,VALID,914.121,VALID,0,VALID,100,VALID,0.0169808,VALID,19.8146,VALID,122,VALID,0.0755814,
2007-12-09, 03:14:00,VALID,914.14,VALID,0.2,VALID,100,VALID,-0.0339617,VALID,19.8181,VALID,128,VALID,0.2859,
2007-12-09, 03:15:00,VALID,914.136,VALID,0,VALID,100,VALID,-0.0339617,VALID,19.8181,VALID,128,VALID,0.94779,
2007-12-09, 03:16:00,VALID,914.121,VALID,0.2,VALID,100,VALID,0,VALID,19.7984,VALID,127,VALID,1.28869,
2007-12-09, 03:17:00,VALID,914.119,VALID,0,VALID,100,VALID,0,VALID,19.7954,VALID,144,VALID,1.33308,
2007-12-09, 03:18:00,VALID,914.095,VALID,0.2,VALID,100,VALID,0.0169808,VALID,19.7951,VALID,149,VALID,1.02805,
2007-12-09, 03:19:00,VALID,914.093,VALID,0,VALID,100,VALID,0,VALID,19.8084,VALID,147,VALID,0.969866,
2007-12-09, 03:20:00,VALID,914.094,VALID,0.2,VALID,100,VALID,-0.0169808,VALID,19.7921,VALID,152,VALID,1.231,
2007-12-09, 03:21:00,VALID,914.084,VALID,0,VALID,100,VALID,0,VALID,19.8024,VALID,146,VALID,0.9375,
2007-12-09, 03:22:00,VALID,914.092,VALID,0,VALID,100,VALID,-0.0509425,VALID,19.7954,VALID,142,VALID,1.08117,
2007-12-09, 03:23:00,VALID,914.064,VALID,0.2,VALID,100,VALID,-0.0169808,VALID,19.7924,VALID,140,VALID,0.846799,
2007-12-09, 03:24:00,VALID,914.048,VALID,0,VALID,100,VALID,0,VALID,19.7824,VALID,141,VALID,1.07213,
2007-12-09, 03:25:00,VALID,914.012,VALID,0.2,VALID,100,VALID,0,VALID,19.7762,VALID,163,VALID,1.23568,
2007-12-09, 03:26:00,VALID,913.977,VALID,0,VALID,100,VALID,0,VALID,19.7729,VALID,168,VALID,0.669389,
2007-12-09, 03:27:00,VALID,913.963,VALID,0.2,VALID,100,VALID,-0.101885,VALID,19.7704,VALID,182,VALID,0.859375,
2007-12-09, 03:28:00,VALID,913.956,VALID,0,VALID,100,VALID,-0.101885,VALID,19.7742,VALID,165,VALID,0.360547,
2007-12-09, 03:29:00,VALID,913.943,VALID,0,VALID,100,VALID,-0.118866,VALID,19.7737,VALID,156,VALID,1.2918,
2007-12-09, 03:30:00,VALID,913.938,VALID,0.2,VALID,100,VALID,-0.135847,VALID,19.7772,VALID,137,VALID,1.27697,
2007-12-09, 03:31:00,VALID,913.932,VALID,0,VALID,100,VALID,-0.0849042,VALID,19.7737,VALID,134,VALID,1.22786,
2007-12-09, 03:32:00,VALID,913.917,VALID,0.2,VALID,100,VALID,-0.0849042,VALID,19.7869,VALID,149,VALID,0.890625,
2007-12-09, 03:33:00,VALID,913.904,VALID,0,VALID,100,VALID,-0.118866,VALID,19.7904,VALID,151,VALID,0.693182,
2007-12-09, 03:34:00,VALID,913.894,VALID,0,VALID,100,VALID,-0.118866,VALID,19.7837,VALID,135,VALID,0.859933,
2007-12-09, 03:35:00,VALID,913.876,VALID,0,VALID,100,VALID,-0.135847,VALID,19.7904,VALID,135,VALID,0.63186,
2007-12-09, 03:36:00,VALID,913.872,VALID,0,VALID,100,VALID,-0.118866,VALID,19.7804,VALID,134,VALID,0.71875,
2007-12-09, 03:37:00,VALID,913.852,VALID,0,VALID,100,VALID,-0.0679233,VALID,19.7802,VALID,151,VALID,1.41629,
2007-12-09, 03:38:00,VALID,913.842,VALID,0,VALID,100,VALID,-0.0849042,VALID,19.7837,VALID,156,VALID,1.50538,
2007-12-09, 03:39:00,VALID,913.82,VALID,0,VALID,100,VALID,-0.0849042,VALID,19.8031,VALID,150,VALID,1.16624,
2007-12-09, 03:40:00,VALID,913.793,VALID,0.2,VALID,100,VALID,-0.0849042,VALID,19.8096,VALID,154,VALID,1.55342,
2007-12-09, 03:41:00,VALID,913.76,VALID,0,VALID,100,VALID,-0.0849042,VALID,19.8031,VALID,149,VALID,1.25152,
2007-12-09, 03:42:00,VALID,913.748,VALID,0,VALID,100,VALID,-0.0339617,VALID,19.8084,VALID,150,VALID,1.30487,
2007-12-09, 03:43:00,VALID,913.716,VALID,0.2,VALID,100,VALID,0.0169808,VALID,19.8049,VALID,154,VALID,0.980208,